Location: LDNL
(36.4545°S, 141.6685°E)
Time: 19:58:29
(UTC+10:00)

A-11 Canister half - Pass Details

Date: 29 January 2022
Orbit: 1527 x 1682 km, 47.3° (Epoch: 20 May)

Event Time Altitude Azimuth Distance (km) Brightness Sun altitude
Rises 01:00:00 0° 283° (WNW) 4,937 11.7 -34.4°
Reaches altitude 10° 01:03:17 10° 279° (W) 3,948 11.2 -34.5°
Maximum altitude 01:13:16 57° 201° (SSW) 1,912 9.6 -34.9°
Drops below altitude 10° 01:23:04 10° 123° (ESE) 3,875 11.3 -35.2°
Sets 01:26:16 0° 118° (ESE) 4,841 11.9 -35.2°
